Home   Weather   33°34'N, 117°15'W   Past weeks
Flag for USA

Past Weather in 33°34'N, 117°15'W, USA — Yesterday and Last 2 Weeks

Now
69 °F

Scattered clouds.


Feels Like: 69 °F
Forecast: 78 / 57 °F
Wind: 5 mph from North

Location: Oceanside - Camp Pendleton

Current Time: Jun 19, 2019 at 12:18:41 pm

Latest Report: Jun 19, 2019 at 10:55 am


Visibility: 7 mi

Pressure: 29.98 "Hg

Humidity: 70%

Dew Point: 59 °F

Location of 33°34'N, 117°15'WLocation

Past Weather in 33°34'N, 117°15'W — Graph

°F

33°34'N, 117°15'W Temperature Yesterday

Maximum temperature yesterday: 67 °F (at 3:55 pm)
Minimum temperature yesterday: 56 °F (at 11:55 pm)
Average temperature yesterday: 62 °F

High & Low Weather Summary for the Past Weeks

 TemperatureHumidityPressure
High96 °F (Jun 10, 2:55 pm)100% (Jun 7, 12:55 am)30.00 "Hg (Jun 7, 12:55 am)
Low52 °F (Jun 10, 4:05 am)29% (Jun 10, 2:55 pm)29.62 "Hg (Jun 5, 2:55 pm)
Average64 °F85%29.93 "Hg
* Reported Jun 4 10:55 am — Jun 19 10:55 am, 33°34'N, 117°15'W. Weather by CustomWeather, © 2019

Note: Actual official high and low records may vary slightly from our data, if they occured in-between our weather recording intervals... More about our weather records

Advertising

33°34'N, 117°15'W Weather History for the Previous 24 Hours

Scroll right to see more
 ConditionsComfort  
Time TempWeatherWind HumidityBarometerVisibility
10:55 am
Wed, Jun 19
69 °FScattered clouds.5 mph70%29.98 "Hg7 mi
10:14 am66 °FPartly sunny.5 mph78%29.99 "Hg7 mi
9:55 am65 °FPartly sunny.No wind81%29.99 "Hg10 mi
8:55 am62 °FOvercast.No wind86%29.99 "Hg7 mi
7:55 am60 °FFog.No wind86%29.99 "Hg5 mi
6:55 am57 °FOvercast.No wind93%29.98 "Hg10 mi
5:55 am56 °FOvercast.3 mph93%29.98 "Hg10 mi
4:55 am54 °FOvercast.No wind97%29.96 "Hg10 mi
4:01 am52 °FPassing clouds.No wind97%29.96 "Hg10 mi
2:55 am52 °FClear.No wind100%29.96 "Hg10 mi
1:55 am53 °FClear.No wind100%29.97 "Hg10 mi
12:55 am54 °FClear.3 mph97%29.98 "Hg10 mi
11:55 pm
Tue, Jun 18
56 °FClear.3 mph93%29.99 "Hg10 mi
10:55 pm58 °FClear.3 mph90%29.99 "Hg10 mi
9:55 pm59 °FClear.No wind90%29.99 "Hg10 mi
8:55 pm60 °FPassing clouds.3 mph86%29.97 "Hg10 mi
7:55 pm62 °FPassing clouds.3 mph83%29.96 "Hg10 mi
6:55 pm64 °FPassing clouds.7 mph78%29.95 "Hg10 mi
5:55 pm66 °FPassing clouds.8 mph73%29.93 "Hg10 mi
4:55 pm67 °FPassing clouds.8 mph73%29.93 "Hg10 mi
3:55 pm67 °FPartly sunny.8 mph73%29.94 "Hg10 mi
2:55 pm66 °FOvercast.8 mph75%29.96 "Hg10 mi
1:55 pm66 °FOvercast.8 mph75%29.97 "Hg10 mi
12:55 pm65 °FOvercast.6 mph78%29.98 "Hg10 mi
Weather by CustomWeather, © 2019

See weather overview